Location: ????????
(56.0167°N, 38.0333°E)
Time: 03:53:51
(UTC+00:00)

BREEZE-M R/B - Pass Details

Date: 19 May 2025
Orbit: 537 x 26537 km, 49.0° (Epoch: 12 June)

Event Time Altitude Azimuth Distance (km) Brightness Sun altitude
Rises 19:56:00 0° 286° (WNW) 9,446 9.1 -11.8°
Reaches altitude 10° 20:05:20 10° 280° (W) 5,718 7.8 -12.2°
Maximum altitude 20:15:16 31° 223° (SW) 1,782 4.6 -12.6°
Enters shadow 20:17:58 18° 171° (S) 1,813 4.3 -12.7°
